When you browse on this site, cookies collect data to enhance your experience and personalize the content and advertising you see.
Visit our Privacy Policy to learn more. By continuing to use the site, you agree to this use of cookies and data.
  • In Italy
  • List of Countries
  • For 7 days
  • Water Temperature
  • Satellite Maps
  • Weather Map
  • Weather Widgets
  • user-avatar
    Login

    Hourly Weather Teryaevka

    Today, 23 July, Tuesday

    Time Temperature Precipitation Wind Pressure Humidity
    00:00 +18°C° 0.1 mm 2 mps 744 mmHg 80%
    01:00 +18°C° 0.2 mm 2 mps 744 mmHg 80%
    02:00 +19°C° 0.2 mm 1 mps 743 mmHg 81%
    03:00 +19°C° 0 mm 2 mps 743 mmHg 87%
    04:00 +18°C° 0.8 mm 3 mps 743 mmHg 89%
    05:00 +18°C° 0.8 mm 3 mps 742 mmHg 90%
    06:00 +18°C° 0.8 mm 4 mps 742 mmHg 92%
    07:00 +19°C° 0.8 mm 4 mps 742 mmHg 90%
    08:00 +20°C° 0.8 mm 4 mps 742 mmHg 89%
    09:00 +20°C° 0.8 mm 5 mps 742 mmHg 87%
    10:00 +20°C° 0.8 mm 5 mps 742 mmHg 87%
    11:00 +20°C° 0.8 mm 5 mps 742 mmHg 87%
    12:00 +20°C° 0.8 mm 5 mps 742 mmHg 87%
    13:00 +21°C° 0.3 mm 4 mps 742 mmHg 82%
    14:00 +22°C° 0.3 mm 4 mps 742 mmHg 78%
    15:00 +23°C° 0.3 mm 4 mps 741 mmHg 74%
    16:00 +23°C° 0 mm 4 mps 741 mmHg 75%
    17:00 +22°C° 0 mm 4 mps 741 mmHg 76%
    18:00 +22°C° 0 mm 3 mps 741 mmHg 77%
    19:00 +21°C° 0 mm 3 mps 741 mmHg 82%
    20:00 +19°C° 0 mm 2 mps 741 mmHg 87%
    21:00 +18°C° 0 mm 2 mps 741 mmHg 92%
    22:00 +18°C° 0 mm 1 mps 741 mmHg 92%
    23:00 +18°C° 0 mm 1 mps 741 mmHg 92%

    Tomorrow, 24 July, Wednesday

    Time Temperature Precipitation Wind Pressure Humidity
    00:00 +18°C° 0 mm 1 mps 741 mmHg 92%
    01:00 +16°C° 0 mm 1 mps 741 mmHg 92%
    02:00 +16°C° 0 mm 1 mps 741 mmHg 93%
    03:00 +16°C° 0 mm 1 mps 741 mmHg 93%
    04:00 +18°C° 0 mm 1 mps 741 mmHg 93%
    05:00 +18°C° 0 mm 1 mps 741 mmHg 92%
    06:00 +18°C° 0 mm 1 mps 741 mmHg 92%
    07:00 +18°C° 0.8 mm 2 mps 741 mmHg 89%
    08:00 +19°C° 0.8 mm 2 mps 741 mmHg 86%
    09:00 +20°C° 0.8 mm 2 mps 741 mmHg 83%
    10:00 +21°C° 0.5 mm 2 mps 741 mmHg 79%
    11:00 +21°C° 0.5 mm 2 mps 742 mmHg 76%
    12:00 +23°C° 0.5 mm 2 mps 742 mmHg 72%
    13:00 +21°C° 0.5 mm 2 mps 742 mmHg 75%
    14:00 +21°C° 0.5 mm 3 mps 742 mmHg 78%
    15:00 +20°C° 0.5 mm 3 mps 742 mmHg 81%
    16:00 +19°C° 0.1 mm 3 mps 742 mmHg 84%
    17:00 +19°C° 0.1 mm 2 mps 742 mmHg 87%
    18:00 +18°C° 0.1 mm 2 mps 741 mmHg 90%
    19:00 +18°C° 0 mm 2 mps 741 mmHg 89%
    20:00 +18°C° 0 mm 1 mps 741 mmHg 88%
    21:00 +16°C° 0 mm 0 mps 741 mmHg 87%
    22:00 +18°C° 0 mm 1 mps 742 mmHg 87%
    23:00 +18°C° 0 mm 1 mps 742 mmHg 88%

    Day after tomorrow, 25 July, Thursday

    Time Temperature Precipitation Wind Pressure Humidity
    00:00 +16°C° 0 mm 1 mps 742 mmHg 88%
    01:00 +16°C° 0 mm 1 mps 742 mmHg 89%
    02:00 +16°C° 0 mm 1 mps 742 mmHg 90%
    03:00 +15°C° 0 mm 1 mps 742 mmHg 91%
    04:00 +16°C° 0 mm 1 mps 742 mmHg 91%
    05:00 +16°C° 0 mm 1 mps 742 mmHg 91%
    06:00 +15°C° 0 mm 0 mps 742 mmHg 91%
    07:00 +18°C° 0 mm 1 mps 742 mmHg 87%
    08:00 +20°C° 0 mm 1 mps 742 mmHg 83%
    09:00 +20°C° 0 mm 2 mps 742 mmHg 79%
    10:00 +21°C° 0.2 mm 2 mps 742 mmHg 76%
    11:00 +23°C° 0.2 mm 2 mps 742 mmHg 73%
    12:00 +23°C° 0.2 mm 2 mps 742 mmHg 70%
    13:00 +24°C° 0.7 mm 2 mps 742 mmHg 70%
    14:00 +24°C° 0.7 mm 2 mps 742 mmHg 71%
    15:00 +24°C° 0.7 mm 2 mps 742 mmHg 71%
    16:00 +24°C° 1 mm 2 mps 742 mmHg 75%
    17:00 +22°C° 1 mm 3 mps 742 mmHg 78%
    18:00 +22°C° 1 mm 3 mps 742 mmHg 82%
    19:00 +21°C° 1 mm 3 mps 742 mmHg 86%
    20:00 +20°C° 1 mm 3 mps 742 mmHg 89%
    21:00 +19°C° 1 mm 4 mps 742 mmHg 93%
    22:00 +18°C° 0.1 mm 4 mps 742 mmHg 93%
    23:00 +18°C° 0.1 mm 4 mps 742 mmHg 94%

    26 July, Friday

    Time Temperature Precipitation Wind Pressure Humidity
    00:00 +18°C° 0.1 mm 4 mps 742 mmHg 95%
    01:00 +18°C° 0.1 mm 4 mps 742 mmHg 94%
    02:00 +17°C° 0.1 mm 5 mps 742 mmHg 94%
    03:00 +17°C° 0.1 mm 5 mps 742 mmHg 93%
    04:00 +17°C° 0.7 mm 5 mps 742 mmHg 94%
    05:00 +17°C° 0.7 mm 5 mps 742 mmHg 95%
    06:00 +18°C° 0.7 mm 4 mps 742 mmHg 96%
    07:00 +18°C° 0.7 mm 4 mps 742 mmHg 95%
    08:00 +19°C° 0.7 mm 4 mps 742 mmHg 94%
    09:00 +19°C° 0.7 mm 4 mps 742 mmHg 92%
    10:00 +20°C° 0.8 mm 4 mps 742 mmHg 86%
    11:00 +22°C° 0.8 mm 5 mps 742 mmHg 80%
    12:00 +23°C° 0.8 mm 5 mps 742 mmHg 74%
    13:00 +23°C° 0.6 mm 4 mps 742 mmHg 74%
    14:00 +23°C° 0.6 mm 4 mps 742 mmHg 74%
    15:00 +23°C° 0.6 mm 4 mps 742 mmHg 74%
    16:00 +22°C° 0.6 mm 3 mps 742 mmHg 80%
    17:00 +20°C° 0.6 mm 2 mps 742 mmHg 86%
    18:00 +20°C° 0.6 mm 1 mps 741 mmHg 92%
    19:00 +20°C° 0.2 mm 1 mps 741 mmHg 93%
    20:00 +18°C° 0.2 mm 2 mps 741 mmHg 94%
    21:00 +18°C° 0.2 mm 2 mps 742 mmHg 95%
    22:00 +18°C° 0.2 mm 2 mps 741 mmHg 95%
    23:00 +18°C° 0.2 mm 3 mps 741 mmHg 95%

    27 July, Saturday

    Time Temperature Precipitation Wind Pressure Humidity
    00:00 +18°C° 0.2 mm 3 mps 741 mmHg 94%
    01:00 +18°C° 0.1 mm 4 mps 741 mmHg 95%
    02:00 +18°C° 0.1 mm 4 mps 741 mmHg 96%
    03:00 +18°C° 0.1 mm 4 mps 741 mmHg 97%
    04:00 +18°C° 0.5 mm 4 mps 741 mmHg 96%
    05:00 +18°C° 0.5 mm 4 mps 741 mmHg 96%
    06:00 +18°C° 0.5 mm 4 mps 741 mmHg 96%
    07:00 +18°C° 0.1 mm 4 mps 740 mmHg 94%
    08:00 +19°C° 0.1 mm 4 mps 740 mmHg 92%
    09:00 +20°C° 0.1 mm 3 mps 740 mmHg 91%
    10:00 +20°C° 0.6 mm 4 mps 740 mmHg 88%
    11:00 +21°C° 0.6 mm 4 mps 740 mmHg 86%
    12:00 +21°C° 0.6 mm 4 mps 740 mmHg 83%
    13:00 +22°C° 0.4 mm 4 mps 740 mmHg 82%
    14:00 +22°C° 0.4 mm 5 mps 740 mmHg 81%
    15:00 +23°C° 0.4 mm 5 mps 740 mmHg 79%
    16:00 +23°C° 0.3 mm 4 mps 739 mmHg 80%
    17:00 +23°C° 0.3 mm 4 mps 739 mmHg 80%
    18:00 +23°C° 0.3 mm 4 mps 739 mmHg 81%
    19:00 +22°C° 0 mm 3 mps 739 mmHg 85%
    20:00 +20°C° 0 mm 2 mps 739 mmHg 89%
    21:00 +19°C° 0 mm 2 mps 739 mmHg 92%
    22:00 +19°C° 0 mm 2 mps 739 mmHg 92%
    23:00 +19°C° 0 mm 1 mps 739 mmHg 92%

    28 July, Sunday

    Time Temperature Precipitation Wind Pressure Humidity
    00:00 +19°C° 0 mm 1 mps 739 mmHg 92%
    01:00 +18°C° 0 mm 2 mps 738 mmHg 92%
    02:00 +17°C° 0 mm 2 mps 738 mmHg 93%
    03:00 +17°C° 0 mm 2 mps 738 mmHg 94%
    04:00 +17°C° 0 mm 2 mps 738 mmHg 94%
    05:00 +17°C° 0 mm 3 mps 737 mmHg 94%
    06:00 +18°C° 0 mm 3 mps 737 mmHg 94%
    07:00 +19°C° 0 mm 4 mps 737 mmHg 91%
    08:00 +20°C° 0 mm 4 mps 737 mmHg 88%
    09:00 +21°C° 0 mm 5 mps 737 mmHg 84%
    10:00 +20°C° 0.2 mm 6 mps 737 mmHg 84%
    11:00 +19°C° 0.2 mm 6 mps 737 mmHg 85%
    12:00 +17°C° 0.2 mm 7 mps 737 mmHg 85%
    13:00 +17°C° 0 mm 7 mps 737 mmHg 81%
    14:00 +17°C° 0 mm 7 mps 738 mmHg 77%
    15:00 +17°C° 0 mm 7 mps 738 mmHg 73%
    16:00 +16°C° 0 mm 7 mps 738 mmHg 71%
    17:00 +16°C° 0 mm 6 mps 738 mmHg 70%
    18:00 +15°C° 0 mm 6 mps 739 mmHg 69%
    19:00 +14°C° 0 mm 6 mps 739 mmHg 70%
    20:00 +12°C° 0 mm 5 mps 739 mmHg 72%
    21:00 +10°C° 0 mm 5 mps 739 mmHg 73%
    22:00 +10°C° 0 mm 5 mps 740 mmHg 71%
    23:00 +10°C° 0 mm 4 mps 740 mmHg 69%
    Show more